Regional Weather Roundup
Issued by NWS Jackson, KY

Home | Current Version | Previous Version | Graphics & Text | Print | Product List | Glossary On
Versions: 1 2 3 4 5 6 7 8 9 10 11 12 13 14 15 16 17 18 19 20 21 22 23 24 25 26 27
000
ASUS43 KJKL 250010
RWRJKL

EAST KENTUCKY HOURLY WEATHER ROUNDUP
NATIONAL WEATHER SERVICE JACKSON KY
800 PM EDT SUN JUL 24 2016

NOTE: "FAIR" INDICATES FEW OR NO CLOUDS BELOW 12,000 FEET WITH
NO SIGNIFICANT WEATHER AND/OR OBSTRUCTIONS TO VISIBILITY.

* THESE REPORTS ARE NOT UNDER NWS QUALITY CONTROL AND MAY NOT
  REPORT WEATHER SUCH AS PRECIPITATION AND FOG.

KYZ079-080-083-085-087-088-110-112-115-119-120-250100
...EASTERN KENTUCKY...

CITY           SKY/WX    TMP DP  RH WIND       PRES   REMARKS
JACKSON        PTCLDY    87  74  64 CALM      30.04R HX  95
6HR MIN TEMP:  87; 6HR MAX TEMP:  92;

LONDON         CLEAR     88  70  55 NW6       30.03R HX  93
6HR MIN TEMP:  88; 6HR MAX TEMP:  93;

SOMERSET*      CLEAR     86  70  58 W3        30.03R HX  90
MONTICELLO*    CLOUDY   N/A N/A N/A CALM      30.03S
WILLIAMSBURG*  PTCLDY    86  75  70 CALM      30.02S HX  95
MIDDLESBORO*   PTCLDY    86  76  71 CALM      30.02S HX  95
6HR MIN TEMP:  86; 6HR MAX TEMP:  93;

HARLAN APT*      N/A     84  72  65 CALM      30.05R
PIKE CO APT*     N/A     84  75  74 CALM      30.04S HX  92
MOREHEAD APT*  PTCLDY    84  75  74 CALM      30.03R HX  92
ASHLAND*       CLEAR     90  77  66 CALM      29.96S HX 102
$$

KYZ035-036-041-042-044-050-067-078-099-250100
...CENTRAL KENTUCKY...

CITY           SKY/WX    TMP DP  RH WIND       PRES   REMARKS
MT STERLING*   CLOUDY    86  73  66 NE7       30.03R HX  93
FLEMING/MASON* CLOUDY    85  73  69 SW6       30.01S HX  91
DANVILLE*      CLEAR     90  73  58 CALM      30.02S HX  98
RICHMOND*      SUNNY     88  72  58 W5        30.02R HX  94
LEXINGTON      CLEAR     89  72  56 SW5       30.00S HX  96
6HR MIN TEMP:  89; 6HR MAX TEMP:  95;

FRANKFORT      CLEAR     89  74  60 SW6       29.98R HX  98
6HR MIN TEMP:  88; 6HR MAX TEMP:  93;

LOUISVILLE     PTCLDY    91  72  53 SW9       29.96S HX  98
6HR MIN TEMP:  91; 6HR MAX TEMP:  95;

LEBANON*         N/A     90  75  62 S3        30.01R HX 100
GLASGOW*       CLOUDY    88  75  65 CALM      29.99S HX  97
BOWLING GREEN  SUNNY     91  73  55 CALM      29.98R HX  99
6HR MIN TEMP:  90; 6HR MAX TEMP:  93;

$$

KYZ091>093-OHZ055-061-077-WVZ005-015-034-035-042-250100
...SOUTHERN OHIO/WEST VIRGINIA...

CITY           SKY/WX    TMP DP  RH WIND       PRES   REMARKS
COLUMBUS       MOCLDY    84  72  67 CALM      29.96F
DAYTON         MOCLDY    86  73  65 SW8       29.98S HX  93
WILMINGTON     PTCLDY    87  76  69 CALM      29.98R HX  97
HUNTINGTON       N/A     89  73  59 S3        29.99S HX  97
CHARLESTON       N/A     91  72  53 CALM      30.00S HX  98
PINEVILLE*       N/A     81  73  75 MISG      30.11R
BECKLEY          N/A     81  68  64 E6        30.12R
BLUEFIELD      MOCLDY    83  68  60 VRB3      30.14R
LOGAN CO APT*    N/A     86  73  66 CALM      30.04F HX  93
$$

VAZ002-007-008-TNZ017-027-036-066-071-250100
...SOUTHWEST VIRGINIA/EAST TENNESSEE...

CITY           SKY/WX    TMP DP  RH WIND       PRES   REMARKS
WISE*            N/A     82  63  51 CALM      30.15R
JONESVILLE*      N/A     88  75  66 CALM      30.06R HX  97
ABINGDON*      CLOUDY    85  73  67 W3        30.09R HX  91
BRISTOL        MOCLDY    85  69  58 NW14      30.05R
MORRISTOWN*    CLEAR     90  72  55 SW5       30.02R HX  96
SEVIERVILLE*     N/A     88  70  55 CALM      30.00S HX  92
KNOXVILLE      CLOUDY    91  68  46 W7        29.99S HX  95
OAK RIDGE      CLEAR     91  69  48 CALM      30.02R HX  96
CROSSVILLE     CLOUDY    81  74  79 CALM      30.09R
NASHVILLE      PTSUNNY   91  73  55 NE5       29.98R HX  99
$$

...KEY TO REMARKS...
VSB - VISIBILITY IN MILES
WCI - WIND CHILL INDEX
HX  - HEAT INDEX

$$




USA.gov is the U.S. government's official web portal to all federal, state and local government web resources and services.